Location: Olsztyn
(53.7767°N, 20.4765°E)
Time: 18:08:18
(UTC+02:00)

A-11 Canister half - Pass Details

Date: 20 January 2022
Orbit: 1513 x 1686 km, 47.2° (Epoch: 24 May)

Event Time Altitude Azimuth Distance (km) Brightness Sun altitude
Rises 20:11:36 0° 256° (WSW) 4,694 12.3 -36.8°
Reaches altitude 10° 20:14:43 10° 252° (WSW) 3,697 11.5 -37.2°
Enters shadow 20:22:06 52° 213° (SSW) 1,820 9.3 -38.3°
